Weather Roundup
Issued by NWS Chicago, IL

Home | Current Version | Previous Version | Text Only | Print | Product List | Glossary On
Versions: 1 2 3 4 5 6 7 8 9 10 11 12 13 14 15 16 17 18 19 20 21 22 23 24 25 26 27 28 29 30 31 32 33 34 35 36 37 38 39 40 41 42 43 44 45 46 47 48 49 50
000
NZUS59 KLOT 130308
HRRLOT

CHICAGO AREA WEATHER ROUNDUP
NATIONAL WEATHER SERVICE CHICAGO/ROMEOVILLE IL
900 PM CST FRI FEB 12 2016

NOTE: "FAIR" INDICATES FEW OR NO CLOUDS BELOW 12,000 FEET WITH NO
SIGNIFICANT WEATHER AND/OR OBSTRUCTIONS TO VISIBILITY.

* THESE STATIONS ARE NOT UNDER NWS QUALITY CONTROL. THEY ALSO MAY NOT
  REPORT WEATHER SUCH AS PRECIPITATION OR FOG.

ILZ005-006-012>014-019>023-130400-
NORTHEAST ILLINOIS

CITY           SKY/WX    TMP DP  RH WIND       PRES   REMARKS
OHARE          PTCLDY    11  -8  42 NW18G26   30.38R WCI  -7
MIDWAY         PTCLDY    13  -8  39 NW24G33   30.39R WCI  -7
AURORA         CLEAR     13  -1  54 N15       30.40R WCI  -3
LANSING*       CLEAR     14  -7  39 NW15G28   30.37R WCI  -2
JOLIET*        PTCLDY    16  -3  43 N15G22    30.39R WCI   1
WAUKEGAN       CLEAR      9  -8  46 NW14G28   30.38R WCI  -7
DUPAGE AIRPORT CLEAR     11  -7  44 N16G25    30.39R WCI  -6
WHEELING       CLEAR     10  -6  48 N18G28    30.40R WCI  -8
KANKAKEE*      PTCLDY    16  -3  42 NW16G22   30.38R WCI   1
MORRIS*        PTCLDY    14  -1  50 N9G18     30.36R WCI   2
LEWIS AIRPORT* PTCLDY    13  -6  42 N20G31    30.38R WCI  -5
$$

WIZ051-052-058>065-066-070>072-130400-
SOUTHEAST WISCONSIN

CITY           SKY/WX    TMP DP  RH WIND       PRES   REMARKS
MILWAUKEE      CLEAR      7 -10  46 N23G30    30.39R WCI -14
KENOSHA*       CLEAR      9  -8  46 NW17G25   30.39R WCI  -9
RACINE*        CLEAR      9 -10  42 NW17G25   30.40R WCI  -9
BURLINGTON     CLEAR      6  -9  49 NW16G23   30.40R WCI -12
WAUKESHA       CLEAR      5  -9  51 NW14G22   30.40R WCI -12
WEST BEND      CLEAR      3 -13  47 NW15G22   30.40R WCI -15
$$

INZ001>003-010>013-019-020-130400-
NORTHWEST INDIANA

CITY           SKY/WX    TMP DP  RH WIND       PRES   REMARKS
GARY*          CLOUDY    18  -6  35 NW21G36   30.37R WCI   1
MICHIGAN CITY* NOT AVBL
RENSSELAER*    NOT AVBL
VALPARAISO     MOCLDY    14  -2  49 NW18G32   30.32R WCI  -3
$$

LMZ740>746-130400-
SOUTHERN LAKE MICHIGAN

STATION/POSITION TIME  SKY/WX   TEMP WIND        PRES    VSBY
                                AIR  DIR/SP/G
                 (UTC)          (F)  (DEG/KT/KT) (MB)    (MI)
HARRISON CRIB    0200            15  330/ 32/ 34   N/A
BURNHAM HARBOR   0300            13  320/ 18/ 24   N/A
CALUMET HARBOR   0200            15              1026.8R
BURNS HARBOR     0203            18  330/ 26     1026.4R
MICHIGAN CITY    0200            16  300/ 31/ 38   N/A
$$

ABBREVIATIONS USED IN REMARKS
   TC - TEMPERATURE IN CELSIUS
  WCI - WIND CHILL INDEX
   HX - HEAT INDEX
  VSB - VISIBILITY
$$



USA.gov is the U.S. government's official web portal to all federal, state and local government web resources and services.